Flag for French Polynesia Weather past 2 weeks in Gambier Islands, French Polynesia

Now
73 °F

Mild.


Feels Like: 75 °F
Forecast: 74 / 78 °F
Wind: 9 mph from Southeast

Location: Rikitea

Current Time: Apr 25, 2015 at 5:44:44 AM

Latest Report: Apr 25, 2015 at 5:00 AM


Visibility: N/A

Pressure: 30.01 "Hg

Humidity: 70%

Dew point: 63 °F

Location of Gambier IslandsLocation

Historic Weather in Gambier Islands — Graph

°F

Gambier Islands temperature yesterday

Maximum temperature yesterday: 78 °F (at 1:00 PM)
Minimum temperature yesterday: 73 °F (at 4:00 AM)
Average temperature yesterday: 75 °F

Past Weeks' High & Low Weather Summary

 TemperatureHumidityPressure
High84 °F (Apr 10, 12:00 PM)100% (Apr 13, 5:00 PM)30.14 "Hg (Apr 13, 5:00 PM)
Low69 °F (Apr 18, 5:00 AM)49% (Apr 22, 12:00 PM)29.85 "Hg (Apr 15, 4:00 PM)
Average74 °F72%29.99 "Hg
* Reported Apr 10 4:00 AM — Apr 25 4:00 AM, Gambier Islands, Weather by CustomWeather, © 2015

Note: Actual official high and low records may vary slightly from our data, if they occured in-between our weather recording intervals... More about our weather records

Advertising

Gambier Islands weather history for previous 24 hours

 ConditionsComfort  
Time TempWeatherWind HumidityBarometerVisibility
4:00 AM
Sat, Apr 25
74 °FMild.10 mph69%30.01 "HgN/A
3:00 AM73 °FMild.3 mph68%30.02 "HgN/A
2:00 AM73 °FMild.3 mph66%30.03 "HgN/A
1:00 AM73 °FMild.2 mph62%30.04 "HgN/A
12:00 AM74 °FMild.7 mph64%30.05 "HgN/A
11:00 PM
Fri, Apr 24
74 °FMild.3 mph64%30.06 "HgN/A
10:00 PM74 °FMild.10 mph67%30.06 "HgN/A
9:00 PM74 °FMild.13 mph63%30.07 "HgN/A
8:00 PM74 °FMild.10 mph64%30.07 "HgN/A
7:00 PM74 °FMild.13 mph59%30.06 "HgN/A
6:00 PM74 °FMild.13 mph61%30.05 "HgN/A
5:00 PM73 °FPassing clouds.13 mph65%30.05 "Hg25 mi
4:00 PM74 °FOvercast.13 mph63%30.02 "Hg25 mi
3:00 PM76 °FOvercast.12 mph62%30.02 "Hg25 mi
2:00 PM77 °FOvercast.9 mph61%30.03 "Hg31 mi
1:00 PM78 °FOvercast.12 mph58%30.05 "Hg31 mi
11:00 AM77 °FOvercast.10 mph59%30.08 "Hg31 mi
10:00 AM77 °FOvercast.12 mph60%30.10 "Hg31 mi
9:00 AM77 °FOvercast.9 mph61%30.11 "Hg31 mi
8:00 AM76 °FScattered clouds.10 mph63%30.10 "Hg25 mi
7:00 AM74 °FScattered clouds.9 mph65%30.09 "Hg25 mi
6:00 AM74 °FPartly sunny.10 mph66%30.06 "Hg19 mi
5:00 AM73 °FMild.7 mph67%30.04 "HgN/A
Weather by CustomWeather, © 2015

See weather overviewHow to use our weather pages